Location: Unspecified
(0.0000°N, 0.0000°E)
Time: 13:25:21
(UTC+02:00)

Iridium 75 - Visible Passes

Search period start: 16 September 2014 00:00
Search period end: 26 September 2014 00:00
Orbit: 775 x 780 km, 86.4° (Epoch: 15 September)

Date Brightness Start Highest point End Pass type
(mag) Time Alt. Az. Time Alt. Az. Time Alt. Az.
16 Sep 6.8 21:26:16 10° SSW 21:31:20 53° W 21:36:22 10° NNW visible
17 Sep 5.9 20:52:42 10° S 20:57:53 69° E 21:03:02 10° N visible
18 Sep 6.8 20:19:53 10° SSE 20:24:26 30° E 20:28:56 10° NNE visible
18 Sep 8.9 22:02:03 10° WSW 22:04:50 15° W 22:07:37 10° WNW visible
19 Sep 7.8 21:26:47 10° SSW 21:31:24 32° W 21:36:00 10° NNW visible
20 Sep 6.2 20:52:45 10° S 20:57:57 74° W 21:03:07 10° N visible
21 Sep 6.2 20:19:28 10° SSE 20:24:30 49° E 20:29:29 10° NNE visible
22 Sep 8.6 21:27:42 10° SW 21:31:27 20° W 21:35:12 10° NW visible
23 Sep 7.2 20:53:04 10° SSW 20:58:00 44° W 21:02:56 10° NNW visible
24 Sep 6.0 20:19:20 10° S 20:24:33 82° E 20:29:44 10° N visible
25 Sep 9.7 07:15:25 10° ENE 07:17:33 13° E 07:19:41 10° ESE visible
25 Sep 9.4 21:29:32 10° WSW 21:31:30 12° W 21:33:28 10° WNW visible
